Tracking 35334 objects as of 13-Sep-2026
HD Live streaming from Space Station
objects crossing your sky now

ARIANE 5 R/B

Track ARIANE 5 R/B now!


NORAD ID: 40876
Int'l Code: 2015-039C
Launch date: August 20, 2015
Source: France (FR)
Launch site: FRENCH GUIANA (FRGUI)

Note: This is a ROCKET BODY
Your satellite tracking list
Your tracking list is empty




NASA's NSSDC Master Catalog

Two Line Element Set (TLE):
1 40876U 15039C   26256.20123987  .00002657  00000-0  69114-3 0  9990
2 40876   5.0702 103.6115 7051297 138.0389 305.8015  2.57473348 97204
Source of the keplerian elements: AFSPC